Starlink 33683

operational
NORAD ID: 63573 Int'l Des: 2025-076 Owner: SPXS Country: US Constellation: starlink
LEOCIRCULAR

About Starlink 33683

Description loading...

Live Position

Loading 3D Globe...

Upcoming Passes

Altitude History

Altitude vs Time

uPlot chart will show altitude changes over time

Two-Line Element Set

1 63573U 25076E 25352.45960842 .00018605 00000-0 68384-3 0 9991
2 63573 43.0046 60.7621 0001420 249.3596 110.7104 15.27583189 39409
Epoch: Dec 18, 2025 • Age: 14 hours

Current Status

Altitude 484.7 km
Velocity 7.62 km/s
Sub-Earth Point -10.45°S, 58.09°W
Launch Date Apr 14, 2025
Age 0.6 years
Type internet

Technical Details

Classification Payload
Mass 575.00 kg
Dry Mass 530.00 kg
Total Mass 575.00 kg
Length 0.30 m
Diameter 4.10 m
Span 29.00 m
Shape Box + pan
Manufacturer SPXS
Bus Type Starlink V2MO
Phase Status In Orbit
Owner/State SPXS/US

Large Constellations

Loading constellations...